#timestamp,LO_Frequency,Hit,StdDev 
1654880415.1,286046998.0,N
1654880416.0,286046998.0,N
1654880435.8,286046996.0,N
1654880455.7,286046996.4,N
1654880475.5,286046993.4,Y
1654880495.3,286046996.6,P
1654880515.2,286046998.7,N
1654880535.0,286047001.1,N
1654880535.9,286047001.1,N
1654880555.8,286047000.3,N
1654880575.6,286046998.3,N
1654880595.4,286046999.6,N
1654880615.3,286046999.2,N
1654880635.1,286046997.0,N
1654880655.9,286046999.5,N
1654880675.8,286046998.7,N
1654880695.7,286046998.4,N
1654880715.5,286047001.0,N
1654880735.3,286046998.1,N
1654880755.2,286046998.6,N
1654880775.0,286047001.0,N
1654880775.9,286047001.0,N
1654880795.7,286046998.1,N
1654880815.6,286046998.6,N
1654880835.4,286046996.6,N
1654880855.3,286046997.1,N
1654880875.1,286046995.6,Y
1654880895.8,286046997.4,P
1654880915.7,286046996.7,P
1654880935.5,286046997.2,N
1654880955.4,286046997.2,Y
1654880975.2,286047001.2,P
1654880995.0,286047000.1,N
1654880995.9,286047000.1,N
1654881015.8,286047004.4,Y
1654881035.6,286047001.4,P
1654881055.5,286047003.0,P
1654881075.3,286047002.9,N
1654881095.1,286047005.2,Y
1654881115.9,286047004.0,P
1654881135.7,286047002.2,N
1654881155.6,286047002.2,N
1654881175.4,286047001.6,N
1654881195.2,286047001.5,N
1654881215.1,286047001.8,N
1654881216.0,286047001.8,N
1654881235.8,286047004.4,Y
1654881255.7,286047000.3,P
1654881275.5,286047000.1,N
1654881295.3,286046999.9,N
1654881315.2,286046999.7,N
1654881335.9,286047002.8,Y
1654881355.7,286047000.1,P
1654881375.6,286047002.8,P
1654881395.4,286046999.8,N
1654881415.3,286047002.7,N
1654881435.1,286047002.3,N
1654881436.0,286047002.3,N
1654881455.8,286047002.3,N
1654881475.7,286047002.8,N
1654881495.5,286047002.4,N
1654881515.3,286047002.3,N
1654881535.2,286047002.5,N
1654881555.0,286047002.5,N
1654881555.9,286047002.5,N
1654881575.8,286046999.7,N
1654881595.6,286046999.8,N
1654881615.4,286046999.7,N
1654881635.3,286047002.0,N
1654881655.1,286047000.2,N
1654881675.8,286047002.4,N
1654881695.7,286046999.9,N
1654881715.5,286047001.0,N
1654881735.4,286047000.2,N
1654881755.2,286047000.2,N
1654881775.0,286047001.0,N
1654881775.9,286047001.0,N
1654881795.8,286047000.6,N
1654881815.6,286047000.3,N
1654881835.4,286047000.3,N
1654881855.3,286047000.9,N
1654881875.1,286047001.0,N
1654881895.9,286047000.5,N
1654881915.7,286046999.0,N
1654881935.5,286046999.5,N
1654881955.4,286046998.4,N
1654881975.2,286046999.1,N
1654881995.0,286046999.1,N
1654881995.9,286046999.1,N
1654882015.8,286047001.2,N
1654882035.6,286046997.0,N
1654882055.5,286046995.4,Y
1654882075.3,286046995.8,P
1654882095.1,286046995.2,N
1654882115.9,286046994.9,N
1654882135.7,286046995.8,N
1654882155.5,286046995.2,N
1654882175.4,286046996.3,N
1654882195.2,286046996.2,N
1654882215.1,286046995.4,N
1654882216.0,286046995.4,N
1654882235.8,286046995.5,N
1654882255.6,286046995.2,Y
1654882275.5,286046998.6,P
1654882295.3,286046998.5,N
1654882315.2,286047000.5,N
1654882335.9,286047000.6,N
1654882355.7,286046998.6,N
1654882375.6,286046998.5,N
1654882395.4,286046998.2,N
1654882415.2,286047001.1,N
1654882435.1,286046998.2,N
1654882436.0,286046998.2,N
1654882455.8,286047000.6,N
1654882475.7,286047000.6,N
1654882495.5,286047000.4,N
1654882515.3,286047000.7,N
1654882535.2,286046998.6,N
1654882555.0,286046998.6,N
1654882555.9,286046998.6,N
1654882575.7,286047000.9,N
1654882595.6,286047001.0,N
1654882615.4,286047001.0,N
1654882635.3,286047000.8,N
1654882655.1,286047000.5,N
1654882656.0,286047000.5,N
1654882675.8,286047002.8,N
1654882695.7,286046999.9,N
1654882715.5,286046998.2,N
1654882735.3,286047000.1,N
1654882755.2,286047000.6,N
1654882775.0,286047000.4,N
1654882775.9,286047000.4,N
1654882795.8,286047000.2,N
1654882815.6,286046999.7,N
1654882835.4,286047002.1,N
1654882855.3,286047002.5,N
1654882875.1,286047002.3,N
1654882895.8,286047002.1,N
1654882915.7,286047002.2,N
1654882935.5,286047002.1,N
1654882955.4,286047000.2,N
1654882975.2,286047000.5,N
1654882995.0,286047000.3,N
1654882995.9,286047000.3,N
1654883015.8,286046999.9,N
1654883035.6,286047002.3,N
1654883055.5,286047002.7,N
1654883075.3,286047002.2,N
1654883095.1,286047002.6,N
1654883115.9,286047002.7,N
1654883135.7,286047002.3,N
1654883155.5,286047002.7,N
1654883175.4,286047000.6,N
1654883195.2,286047001.0,N
1654883215.1,286046998.5,N
1654883216.0,286046998.5,N
1654883235.8,286046999.9,N
1654883255.6,286047000.3,N
1654883275.5,286047000.0,N
1654883295.3,286046999.7,N
1654883315.1,286047002.7,N
1654883335.9,286047000.9,N
1654883355.7,286047000.5,N
1654883375.6,286046998.4,N
1654883395.4,286047000.5,N
1654883415.2,286047000.5,N
1654883435.1,286047001.1,N
1654883436.0,286047001.1,N
1654883455.8,286047001.0,N
1654883475.6,286047000.5,N
1654883495.5,286047000.6,N
1654883515.3,286046998.1,N
1654883535.2,286047000.9,N
1654883555.9,286047000.9,N
1654883575.7,286047000.7,N
1654883595.6,286047000.9,N
1654883615.4,286047000.2,N
1654883635.2,286047000.8,N
1654883655.1,286047000.4,N
1654883656.0,286047000.4,N
1654883675.8,286047001.2,N
1654883695.7,286046999.9,N
1654883715.5,286046998.1,N
1654883735.3,286046998.5,N
1654883755.2,286047001.0,N
1654883775.0,286047000.5,N
1654883775.9,286047000.5,N
1654883795.8,286046999.9,N
1654883815.6,286047002.8,N
1654883835.4,286046999.7,N
1654883855.3,286047000.3,N
1654883875.1,286047000.4,N
1654883895.8,286047002.4,N
1654883915.7,286047002.4,N
1654883935.5,286046999.9,N
1654883955.4,286047000.0,N
1654883975.2,286047000.8,N
1654883995.0,286047000.4,N
1654883995.9,286047000.4,N
